When you browse on this site, cookies collect data to enhance your experience and personalize the content and advertising you see.
Visit our Privacy Policy to learn more. By continuing to use the site, you agree to this use of cookies and data.
  • In Czech Republic
  • List of Countries
  • For 7 days
  • Water Temperature
  • Satellite Maps
  • Weather Map
  • Weather Widgets
  • user-avatar
    Login

    Hourly Weather Toronto

    Today, 26 June, Wednesday

    Time Temperature Precipitation Wind Pressure Humidity
    00:00 +21°C° 0 mm 3 mps 748 mmHg 78%
    01:00 +20°C° 0 mm 3 mps 748 mmHg 80%
    02:00 +20°C° 0.1 mm 3 mps 748 mmHg 80%
    03:00 +20°C° 0.1 mm 3 mps 748 mmHg 81%
    04:00 +20°C° 0.1 mm 3 mps 748 mmHg 82%
    05:00 +20°C° 0.4 mm 4 mps 748 mmHg 82%
    06:00 +21°C° 0.4 mm 4 mps 748 mmHg 82%
    07:00 +21°C° 0.4 mm 4 mps 749 mmHg 82%
    08:00 +23°C° 0 mm 5 mps 749 mmHg 75%
    09:00 +25°C° 0 mm 5 mps 749 mmHg 67%
    10:00 +27°C° 0 mm 5 mps 750 mmHg 60%
    11:00 +27°C° 0 mm 5 mps 750 mmHg 57%
    12:00 +28°C° 0 mm 6 mps 750 mmHg 54%
    13:00 +29°C° 0 mm 6 mps 750 mmHg 51%
    14:00 +29°C° 0 mm 6 mps 750 mmHg 52%
    15:00 +28°C° 0 mm 6 mps 750 mmHg 53%
    16:00 +28°C° 0 mm 6 mps 750 mmHg 54%
    17:00 +27°C° 0 mm 5 mps 750 mmHg 57%
    18:00 +26°C° 0 mm 5 mps 751 mmHg 61%
    19:00 +25°C° 0 mm 4 mps 751 mmHg 65%
    20:00 +23°C° 0 mm 4 mps 751 mmHg 68%
    21:00 +24°C° 0 mm 3 mps 752 mmHg 71%
    22:00 +22°C° 0 mm 3 mps 752 mmHg 75%
    23:00 +21°C° 0 mm 3 mps 752 mmHg 77%

    Tomorrow, 27 June, Thursday

    Time Temperature Precipitation Wind Pressure Humidity
    00:00 +21°C° 0 mm 3 mps 752 mmHg 78%
    01:00 +20°C° 0 mm 3 mps 752 mmHg 80%
    02:00 +20°C° 0 mm 2 mps 752 mmHg 80%
    03:00 +19°C° 0 mm 2 mps 752 mmHg 79%
    04:00 +19°C° 0 mm 2 mps 753 mmHg 79%
    05:00 +21°C° 0 mm 1 mps 753 mmHg 75%
    06:00 +22°C° 0 mm 1 mps 753 mmHg 71%
    07:00 +22°C° 0 mm 1 mps 754 mmHg 66%
    08:00 +24°C° 0 mm 1 mps 754 mmHg 60%
    09:00 +26°C° 0 mm 1 mps 754 mmHg 54%
    10:00 +28°C° 0 mm 2 mps 754 mmHg 48%
    11:00 +28°C° 0 mm 2 mps 754 mmHg 46%
    12:00 +29°C° 0 mm 2 mps 754 mmHg 44%
    13:00 +30°C° 0 mm 3 mps 754 mmHg 42%
    14:00 +30°C° 0 mm 3 mps 754 mmHg 43%
    15:00 +31°C° 0 mm 3 mps 754 mmHg 44%
    16:00 +31°C° 0 mm 3 mps 753 mmHg 44%
    17:00 +30°C° 0 mm 3 mps 753 mmHg 49%
    18:00 +29°C° 0 mm 2 mps 753 mmHg 53%
    19:00 +28°C° 0 mm 2 mps 753 mmHg 57%
    20:00 +27°C° 0 mm 2 mps 753 mmHg 61%
    21:00 +26°C° 0 mm 1 mps 753 mmHg 65%
    22:00 +25°C° 0 mm 1 mps 753 mmHg 69%
    23:00 +24°C° 0.1 mm 1 mps 753 mmHg 71%

    Day after tomorrow, 28 June, Friday

    Time Temperature Precipitation Wind Pressure Humidity
    00:00 +24°C° 0.1 mm 2 mps 753 mmHg 72%
    01:00 +24°C° 0.1 mm 2 mps 753 mmHg 73%
    02:00 +23°C° 0.7 mm 2 mps 753 mmHg 76%
    03:00 +23°C° 0.7 mm 2 mps 752 mmHg 79%
    04:00 +23°C° 0.7 mm 2 mps 752 mmHg 82%
    05:00 +23°C° 0.3 mm 2 mps 752 mmHg 81%
    06:00 +23°C° 0.3 mm 2 mps 752 mmHg 80%
    07:00 +23°C° 0.3 mm 2 mps 752 mmHg 79%
    08:00 +23°C° 0.3 mm 2 mps 752 mmHg 78%
    09:00 +24°C° 0.3 mm 3 mps 752 mmHg 77%
    10:00 +25°C° 0.3 mm 3 mps 751 mmHg 76%
    11:00 +26°C° 1.5 mm 4 mps 751 mmHg 74%
    12:00 +27°C° 1.5 mm 5 mps 751 mmHg 72%
    13:00 +28°C° 1.5 mm 6 mps 751 mmHg 70%
    14:00 +27°C° 0.8 mm 5 mps 751 mmHg 72%
    15:00 +26°C° 0.8 mm 4 mps 751 mmHg 73%
    16:00 +25°C° 0.8 mm 4 mps 750 mmHg 75%
    17:00 +25°C° 0 mm 3 mps 751 mmHg 76%
    18:00 +25°C° 0 mm 2 mps 751 mmHg 76%
    19:00 +24°C° 0 mm 1 mps 751 mmHg 77%
    20:00 +23°C° 0 mm 1 mps 751 mmHg 79%
    21:00 +23°C° 0 mm 1 mps 751 mmHg 82%
    22:00 +22°C° 0 mm 1 mps 751 mmHg 84%
    23:00 +22°C° 0 mm 1 mps 751 mmHg 85%

    29 June, Saturday

    Time Temperature Precipitation Wind Pressure Humidity
    00:00 +21°C° 0 mm 1 mps 751 mmHg 86%
    01:00 +21°C° 0 mm 1 mps 751 mmHg 86%
    02:00 +21°C° 0 mm 1 mps 751 mmHg 88%
    03:00 +21°C° 0 mm 1 mps 751 mmHg 89%
    04:00 +20°C° 0 mm 1 mps 751 mmHg 90%
    05:00 +21°C° 0 mm 1 mps 751 mmHg 87%
    06:00 +20°C° 0 mm 0 mps 752 mmHg 84%
    07:00 +21°C° 0 mm 0 mps 752 mmHg 81%
    08:00 +24°C° 0 mm 1 mps 752 mmHg 75%
    09:00 +26°C° 0 mm 1 mps 752 mmHg 68%
    10:00 +28°C° 0 mm 1 mps 751 mmHg 61%
    11:00 +28°C° 0 mm 2 mps 751 mmHg 58%
    12:00 +29°C° 0 mm 2 mps 751 mmHg 55%
    13:00 +30°C° 0 mm 2 mps 750 mmHg 52%
    14:00 +30°C° 0.2 mm 3 mps 750 mmHg 55%
    15:00 +30°C° 0.2 mm 3 mps 749 mmHg 58%
    16:00 +30°C° 0.2 mm 3 mps 749 mmHg 61%
    17:00 +30°C° 0.9 mm 3 mps 748 mmHg 66%
    18:00 +29°C° 0.9 mm 3 mps 748 mmHg 70%
    19:00 +29°C° 0.9 mm 2 mps 747 mmHg 74%
    20:00 +28°C° 0.7 mm 3 mps 747 mmHg 77%
    21:00 +27°C° 0.7 mm 3 mps 747 mmHg 80%
    22:00 +26°C° 0.7 mm 4 mps 747 mmHg 83%
    23:00 +25°C° 0.5 mm 4 mps 747 mmHg 85%

    30 June, Sunday

    Time Temperature Precipitation Wind Pressure Humidity
    00:00 +25°C° 0.5 mm 4 mps 746 mmHg 87%
    01:00 +23°C° 0.5 mm 5 mps 746 mmHg 89%
    02:00 +23°C° 0.4 mm 5 mps 746 mmHg 89%
    03:00 +23°C° 0.4 mm 5 mps 745 mmHg 90%
    04:00 +23°C° 0.4 mm 4 mps 745 mmHg 90%
    05:00 +23°C° 0.1 mm 4 mps 745 mmHg 87%
    06:00 +22°C° 0.1 mm 5 mps 746 mmHg 85%
    07:00 +22°C° 0.1 mm 5 mps 746 mmHg 82%
    08:00 +23°C° 0 mm 4 mps 746 mmHg 75%
    09:00 +23°C° 0 mm 4 mps 746 mmHg 69%
    10:00 +25°C° 0 mm 4 mps 747 mmHg 62%
    11:00 +25°C° 0 mm 5 mps 747 mmHg 58%
    12:00 +24°C° 0 mm 6 mps 747 mmHg 53%
    13:00 +26°C° 0 mm 6 mps 747 mmHg 48%
    14:00 +24°C° 0 mm 6 mps 747 mmHg 50%
    15:00 +24°C° 0 mm 6 mps 747 mmHg 51%
    16:00 +23°C° 0 mm 5 mps 747 mmHg 53%
    17:00 +22°C° 0 mm 5 mps 747 mmHg 55%
    18:00 +21°C° 0 mm 5 mps 748 mmHg 58%
    19:00 +20°C° 0 mm 5 mps 748 mmHg 60%
    20:00 +19°C° 0 mm 4 mps 748 mmHg 62%
    21:00 +19°C° 0 mm 4 mps 749 mmHg 63%
    22:00 +18°C° 0 mm 4 mps 749 mmHg 64%
    23:00 +17°C° 0 mm 4 mps 749 mmHg 65%

    1 July, Monday

    Time Temperature Precipitation Wind Pressure Humidity
    00:00 +17°C° 0 mm 3 mps 749 mmHg 66%
    01:00 +16°C° 0 mm 3 mps 749 mmHg 67%
    02:00 +16°C° 0 mm 3 mps 749 mmHg 68%
    03:00 +16°C° 0 mm 3 mps 750 mmHg 68%
    04:00 +16°C° 0 mm 3 mps 750 mmHg 68%
    05:00 +16°C° 0 mm 2 mps 750 mmHg 67%
    06:00 +17°C° 0 mm 2 mps 750 mmHg 66%
    07:00 +18°C° 0 mm 2 mps 750 mmHg 64%
    08:00 +20°C° 0 mm 2 mps 750 mmHg 59%
    09:00 +23°C° 0 mm 1 mps 751 mmHg 54%
    10:00 +25°C° 0 mm 1 mps 751 mmHg 48%
    11:00 +26°C° 0 mm 2 mps 751 mmHg 46%
    12:00 +27°C° 0 mm 2 mps 751 mmHg 44%
    13:00 +28°C° 0 mm 2 mps 750 mmHg 43%
    14:00 +28°C° 0 mm 3 mps 750 mmHg 42%
    15:00 +28°C° 0 mm 3 mps 749 mmHg 42%
    16:00 +28°C° 0 mm 3 mps 748 mmHg 42%
    17:00 +27°C° 0 mm 3 mps 749 mmHg 46%
    18:00 +26°C° 0 mm 2 mps 749 mmHg 51%
    19:00 +26°C° 0 mm 2 mps 749 mmHg 55%
    20:00 +25°C° 0 mm 2 mps 749 mmHg 61%
    21:00 +24°C° 0 mm 2 mps 749 mmHg 67%
    22:00 +23°C° 0 mm 2 mps 749 mmHg 73%
    23:00 +21°C° 0 mm 2 mps 749 mmHg 74%
    Show more